Theta_e
312 312 312 311 311 311 311 311 312 313 312 312 311 309 305 303 298 296 295 298 298 302 303 301 304 308 310 310 310 307 304 307 309 306 302 300 299 305 305 303 304 304 304 303 301 300 301 302 303 306 306 307 306 305 304 304 303 304 305 305 307 308 307 306 307 310 312 315 315 313 311 311 311 311
312 312 312 311 310 310 310 311 311 312 312 312 311 311 310 306 302 299 298 300 303 300 302 300 300 304 308 309 310 308 306 311 311 307 303 301 298 305 303 302 301 301 302 302 301 300 300 301 303 306 304 305 304 303 303 303 303 304 304 304 306 308 308 307 307 309 310 312 312 311 310 310 310 311
313 312 311 311 311 312 312 312 312 313 313 312 311 310 312 310 306 304 302 298 303 304 301 303 303 301 304 307 306 308 308 311 312 306 304 301 303 307 303 302 301 301 301 300 300 301 301 301 301 302 303 305 305 305 303 303 304 303 303 303 304 307 308 307 306 309 310 311 311 310 308 308 309 310
312 311 310 311 311 311 310 310 311 310 312 312 310 311 310 309 308 306 303 301 302 306 302 302 302 303 302 301 300 299 301 305 311 307 304 302 308 303 299 302 302 302 301 301 300 303 304 302 301 301 302 302 303 302 302 303 303 301 301 302 303 305 306 305 305 307 308 309 309 308 307 307 307 308
311 312 311 311 312 312 311 310 311 310 310 311 312 311 310 309 308 306 304 302 302 305 308 305 304 306 303 301 300 298 299 299 300 306 305 302 299 299 297 299 302 302 301 301 301 302 302 300 300 299 299 299 300 301 301 302 302 300 300 301 302 303 303 303 303 304 306 307 307 306 306 306 307 308
314 310 309 310 310 310 309 309 310 308 308 308 308 310 309 308 310 309 306 303 301 301 306 304 305 305 305 301 302 302 303 303 304 301 304 302 300 300 297 297 298 301 302 302 302 302 301 300 300 299 299 299 300 302 301 300 300 299 298 298 300 301 301 301 302 303 304 305 305 305 305 306 306 307
309 308 308 308 309 312 308 310 309 309 308 309 309 308 309 308 308 309 310 306 302 302 303 304 303 304 307 302 303 305 305 306 305 304 303 304 304 304 299 298 297 299 301 301 301 301 301 301 301 300 300 300 300 300 300 300 300 299 299 297 299 300 300 300 301 302 303 305 304 305 305 305 306 307
309 308 308 308 308 309 308 310 310 309 308 309 308 309 309 308 309 309 309 308 304 302 303 303 303 305 304 306 306 305 305 304 305 305 304 307 305 304 303 301 300 300 301 301 301 302 303 302 302 301 301 300 300 300 300 300 299 299 298 298 298 298 299 300 300 301 303 302 303 304 303 304 305 308
309 309 307 308 309 308 308 308 311 308 309 311 310 309 308 308 310 311 310 309 307 304 302 303 304 304 306 306 305 304 304 303 303 306 305 307 307 307 307 306 303 302 302 301 301 301 301 301 302 301 301 301 301 301 300 300 300 299 299 298 298 298 298 300 300 301 301 300 300 301 301 301 304 307
310 310 308 310 310 310 309 309 310 311 311 311 310 310 309 309 311 310 309 308 308 307 306 304 305 305 305 306 305 306 304 303 305 305 306 306 307 305 304 306 309 308 303 302 302 302 300 301 302 302 302 301 300 301 301 301 300 299 299 299 298 298 297 298 299 300 298 300 300 299 299 299 302 305
310 312 312 310 310 310 311 312 311 311 311 312 311 310 310 310 307 308 308 308 308 306 306 306 305 306 307 305 304 306 306 305 305 304 302 303 305 305 303 304 306 307 307 305 303 303 303 304 303 303 302 302 303 303 302 302 301 299 298 297 296 295 295 296 297 299 299 299 298 297 296 296 298 299
312 314 315 314 313 313 312 311 311 311 311 309 309 310 310 310 309 307 306 306 304 305 305 305 304 304 303 307 306 305 304 304 304 305 302 301 301 302 303 303 304 304 304 304 304 304 303 303 304 303 303 303 303 303 303 303 301 299 297 296 296 297 296 296 296 298 299 299 297 296 295 296 297 297
316 315 314 312 311 313 312 308 310 314 315 313 310 311 309 308 308 307 306 305 304 303 304 303 304 303 302 302 303 303 302 300 300 302 302 300 301 301 301 302 303 303 301 302 301 302 303 302 301 302 301 302 304 304 303 303 302 300 297 297 297 297 298 297 298 299 298 298 297 295 296 296 296 296
316 316 314 315 317 311 309 305 300 299 302 309 312 311 310 308 308 307 307 306 305 305 303 303 304 302 301 301 302 301 302 302 301 300 299 298 299 298 298 299 300 302 301 300 299 300 302 302 301 301 301 302 303 302 302 302 301 299 298 297 298 297 297 297 298 298 298 297 296 296 295 295 295 295
315 314 314 311 313 312 310 305 299 298 299 298 298 299 304 309 309 308 307 305 305 305 304 302 301 299 299 301 301 301 301 300 300 299 297 298 297 297 296 295 298 301 301 299 297 298 301 300 300 300 301 301 302 302 302 302 302 300 299 298 298 298 297 297 297 297 297 297 296 296 295 295 295 295
313 314 314 312 313 312 312 310 304 301 298 296 295 295 294 294 295 301 306 304 304 302 302 301 301 300 299 300 300 300 298 299 298 299 298 297 297 295 294 294 294 299 300 298 296 297 299 299 300 299 301 302 302 303 301 300 300 300 299 299 298 298 298 298 297 297 297 297 296 296 296 296 295 294
313 314 314 314 315 317 317 318 311 304 299 296 294 294 294 294 294 293 295 300 306 304 302 302 300 300 300 300 300 301 300 299 298 296 297 295 295 294 294 294 294 298 299 297 295 294 297 297 297 298 299 299 300 300 299 299 299 299 299 299 299 298 298 298 298 297 297 297 297 297 298 298 297 297
311 313 313 312 313 312 313 312 313 309 301 298 298 298 299 296 294 295 295 295 296 300 302 301 302 302 301 301 299 300 299 298 296 295 295 295 294 294 294 295 296 298 300 295 294 292 294 295 294 294 295 298 297 298 298 297 299 299 299 299 298 298 298 298 297 297 296 296 296 296 297 298 297 297
310 311 312 310 311 313 312 312 311 311 304 302 303 302 302 300 299 297 297 299 304 305 303 303 303 301 301 299 298 298 298 298 297 296 294 294 294 294 294 292 293 294 295 295 293 290 291 292 293 293 294 296 295 296 296 297 298 298 298 298 298 298 297 297 296 295 295 296 296 296 295 295 295 295
312 313 311 309 306 308 312 304 301 305 307 306 306 304 299 296 294 294 294 292 297 301 300 298 297 296 297 295 295 296 296 295 295 295 293 294 292 291 289 290 291 291 294 295 293 290 290 291 292 292 294 293 293 294 294 296 298 297 297 297 297 297 296 296 295 295 295 295 296 295 295 295 294 294
314 314 312 309 305 308 307 297 296 300 303 308 306 303 300 298 294 293 294 292 291 292 293 293 292 291 291 291 291 292 294 294 294 292 290 291 289 288 287 289 289 290 292 293 293 291 289 291 290 291 292 292 292 293 293 294 296 296 296 296 296 296 296 295 294 295 295 295 295 295 295 294 294 294
312 313 311 313 309 309 304 293 292 296 306 308 305 302 299 297 294 293 295 294 292 292 291 291 290 290 291 291 291 291 292 293 295 290 290 291 289 289 289 288 288 290 291 292 293 291 288 290 290 290 290 290 289 292 292 293 294 295 295 295 295 295 295 294 293 294 295 296 295 295 295 295 295 293
310 310 308 307 307 309 299 292 292 294 304 308 306 303 301 298 296 295 295 293 292 292 291 292 292 292 292 292 292 294 291 292 296 292 292 291 290 289 289 289 288 287 286 291 293 290 287 289 289 288 288 286 288 290 292 292 292 293 293 293 293 295 294 294 293 294 295 295 295 295 295 295 294 293
303 301 298 297 293 297 293 293 293 294 299 307 306 305 303 300 299 298 297 295 294 294 294 293 294 294 292 292 293 293 292 293 295 291 292 293 293 292 290 290 288 287 287 289 293 289 288 288 289 288 288 286 282 287 289 290 290 291 291 292 291 293 294 294 293 294 294 294 295 295 295 295 295 291
300 297 296 295 292 291 291 292 293 295 298 301 306 305 303 302 301 298 298 297 297 296 295 294 294 295 294 293 293 294 293 292 292 293 293 294 294 293 291 289 288 287 287 290 293 290 288 288 287 286 287 287 287 287 287 289 290 290 291 291 290 291 291 292 292 291 293 293 293 294 294 294 295 293
300 297 297 295 292 291 291 290 291 292 293 294 298 296 293 293 294 299 298 297 297 296 294 293 292 293 291 291 292 294 294 294 294 293 292 293 292 292 292 291 289 287 288 291 293 290 288 288 287 287 287 285 286 286 286 287 289 290 289 290 290 290 291 290 290 290 291 291 292 292 292 293 294 294
297 296 296 295 291 290 290 290 290 290 291 292 291 289 290 291 292 295 297 296 297 293 293 292 292 291 291 292 291 291 293 293 293 292 292 292 293 292 292 291 290 290 291 290 293 290 289 287 288 287 287 286 285 285 285 286 287 288 288 288 289 290 291 289 289 291 291 290 291 292 292 292 292 292
296 295 295 293 289 290 290 290 290 290 291 290 288 289 290 291 293 296 296 293 293 291 290 290 290 291 290 290 290 290 292 290 290 292 291 291 292 291 292 290 291 291 290 291 290 289 289 288 288 288 288 286 285 286 286 287 286 287 288 290 290 290 290 289 290 291 290 290 290 290 289 290 290 290
296 293 291 289 289 289 288 288 288 288 288 288 288 289 291 295 294 295 293 293 293 290 288 290 291 291 291 291 291 291 290 291 291 291 291 290 290 290 289 288 288 289 291 292 289 289 289 288 288 288 288 289 289 289 288 287 287 287 288 289 288 288 289 290 289 289 290 290 289 289 289 290 290 290
292 290 290 289 289 289 290 291 291 290 290 288 289 290 293 294 293 293 293 292 291 289 289 289 289 290 290 289 289 290 290 289 288 288 288 287 288 288 288 288 287 288 289 289 289 290 289 289 289 289 290 290 290 289 289 288 287 287 287 287 289 290 288 289 290 291 291 291 289 289 290 291 291 292
291 290 291 290 290 291 290 290 290 289 289 290 291 291 292 294 293 292 291 291 291 290 290 288 289 289 289 290 289 287 287 287 287 288 287 286 285 287 286 285 286 286 288 289 290 291 290 291 292 291 290 289 290 289 290 290 288 288 288 288 289 287 289 291 291 290 290 291 291 288 289 289 290 292
292 291 289 290 291 290 289 289 289 290 291 289 289 292 292 290 290 291 291 292 292 290 289 288 287 286 289 287 286 287 287 286 286 286 286 286 285 285 284 284 284 285 287 288 290 292 291 292 291 290 290 290 289 290 291 290 289 289 288 289 289 290 290 290 291 291 292 291 290 288 288 288 289 291
291 291 291 290 290 289 287 287 288 289 291 290 292 295 293 291 291 290 289 291 289 288 288 288 287 284 286 286 284 285 284 286 285 284 285 284 285 284 283 284 286 286 286 287 289 290 290 291 292 291 291 291 291 291 290 288 289 290 288 289 289 289 289 290 290 291 291 290 289 289 289 289 290 290
290 289 290 289 289 288 288 287 287 288 289 289 289 288 289 289 289 288 289 289 288 287 287 286 285 285 283 283 283 285 283 284 284 284 287 284 283 283 282 284 285 287 286 287 288 288 289 290 290 290 290 288 290 290 291 289 288 289 289 289 289 289 290 290 290 291 290 289 288 287 287 287 289 290
289 289 289 289 288 288 288 287 288 288 288 288 287 287 287 288 287 287 286 285 285 286 285 285 284 284 284 284 283 283 282 283 284 281 282 282 282 285 285 285 286 286 286 286 286 287 287 287 287 287 286 286 286 287 292 292 289 289 289 288 288 288 289 290 290 289 288 287 285 284 285 286 288 290
289 290 289 288 288 288 288 287 287 288 288 287 287 287 287 286 286 287 286 286 287 286 285 284 284 284 284 285 284 283 283 283 282 283 283 282 283 284 285 286 285 286 286 286 286 287 286 285 286 285 284 285 284 284 285 292 292 290 288 287 288 287 288 289 288 287 286 286 286 285 285 285 286 288
290 289 289 288 288 288 287 287 288 288 288 288 287 288 287 286 285 287 287 287 287 286 286 285 284 284 284 284 283 283 283 283 282 282 282 282 283 284 285 285 285 285 285 286 286 286 286 285 284 285 285 284 284 283 285 285 288 291 291 287 287 288 288 287 286 284 286 286 286 286 286 286 286 287
287 287 288 289 289 289 288 288 288 288 288 288 288 286 286 286 287 287 287 287 286 285 285 284 285 284 283 283 283 282 282 282 280 281 282 282 282 281 283 283 284 285 285 286 285 285 286 285 285 285 285 284 283 283 283 286 286 288 291 290 286 287 287 286 285 285 286 285 285 287 287 286 286 286
291 289 289 288 289 290 288 288 288 288 289 288 287 287 287 286 287 286 287 286 286 285 285 285 284 284 284 283 283 283 281 280 281 281 281 280 281 281 283 284 284 285 285 285 285 284 285 286 286 286 286 285 284 284 285 284 285 287 289 290 289 286 286 286 286 286 286 286 286 287 287 288 289 289
291 291 292 291 291 291 290 289 289 289 289 288 287 287 287 286 286 286 286 286 286 285 286 285 285 284 283 282 282 283 283 283 281 280 279 281 282 283 284 284 284 284 284 283 284 285 285 286 286 287 287 287 287 288 287 286 287 287 287 288 290 288 287 285 285 286 286 286 286 285 284 285 285 286
292 291 291 291 291 291 290 290 291 289 290 289 288 287 286 286 286 285 285 285 285 284 284 283 283 284 283 283 284 283 281 280 279 279 280 281 283 284 285 285 284 285 284 284 284 285 286 287 288 287 287 287 287 286 285 285 285 286 287 287 288 288 288 288 287 287 285 285 284 283 282 283 284 284
292 290 291 292 292 292 292 292 291 290 289 288 287 286 286 286 286 287 287 285 283 282 281 282 282 283 283 282 282 282 281 279 279 281 283 283 284 285 285 284 284 284 284 284 285 285 287 288 288 288 287 286 285 285 284 284 284 285 286 285 283 286 288 288 288 288 286 284 283 282 282 284 284 284
291 292 290 290 292 292 292 292 291 290 288 287 286 286 286 285 285 285 284 284 281 281 281 281 282 281 280 279 279 280 279 279 280 282 284 285 285 284 284 284 284 283 284 285 285 286 286 287 287 286 286 285 285 285 284 285 285 285 285 285 286 285 285 287 287 287 287 287 286 285 284 283 282 282
291 292 292 292 291 291 292 291 290 288 287 287 286 285 285 284 283 282 282 283 283 282 282 281 281 281 279 278 278 278 278 278 280 283 284 284 285 285 285 285 284 283 284 284 285 286 286 286 286 286 285 285 285 285 285 285 285 285 285 286 286 286 285 285 285 285 286 286 286 286 286 286 285 285
289 289 291 291 290 288 288 289 288 288 287 286 285 284 284 284 284 284 283 283 282 282 282 282 281 279 279 278 279 278 280 284 282 283 284 285 285 285 285 285 284 284 285 285 285 285 286 286 286 285 284 285 285 285 286 285 285 285 286 286 286 286 285 285 285 285 284 284 285 286 286 286 286 286
Wind_Speed
5 6 6 6 5 3 4 7 6 7 7 7 6 6 9 8 8 4 3 1 3 1 1 3 1 4 6 5 5 6 5 6 6 3 3 3 3 4 6 5 4 4 3 3 5 6 6 6 6 5 5 5 6 6 6 6 7 7 7 8 8 7 8 8 8 8 10 11 12 11 11 11 11 10
6 5 6 5 5 4 5 5 5 6 7 8 7 5 3 8 9 6 6 2 0 1 1 2 2 2 6 6 4 5 6 9 8 4 5 4 3 7 7 7 6 5 5 4 4 6 7 6 5 3 3 3 4 5 5 6 6 7 7 7 7 7 8 8 9 10 10 11 11 12 12 13 13 12
6 6 5 4 4 4 5 5 7 6 7 7 7 6 4 5 7 8 7 5 1 2 2 1 2 4 4 5 5 4 5 8 9 6 5 4 7 7 5 6 6 6 5 5 3 4 5 5 4 3 2 1 1 1 2 3 4 5 6 6 8 8 9 9 10 10 11 11 12 12 13 13 13 13
5 5 4 3 4 4 4 5 6 6 5 6 7 6 6 7 7 7 5 6 3 0 2 3 4 5 4 5 5 4 4 7 12 5 5 5 7 4 3 5 6 6 6 5 4 4 4 5 5 4 3 1 0 0 1 2 3 4 4 5 7 7 9 9 9 10 10 11 11 12 12 13 13 14
5 4 4 4 2 3 5 4 3 4 4 4 5 6 7 6 6 8 6 7 4 1 1 3 2 2 6 3 4 4 4 3 4 4 4 6 5 3 3 3 5 6 6 5 6 6 5 5 6 6 5 4 2 2 1 1 2 3 3 4 5 6 7 7 7 8 9 10 10 11 11 12 13 14
4 4 5 5 4 4 5 5 5 4 4 5 5 3 7 6 5 4 5 3 4 3 0 2 0 1 2 4 3 5 4 5 3 4 4 4 3 3 3 4 4 8 6 7 8 8 7 6 6 6 5 5 4 3 3 3 3 3 3 2 2 3 4 4 5 6 6 7 8 9 11 11 12 13
4 5 4 5 4 4 5 4 4 4 4 4 7 4 4 6 5 6 7 5 3 5 4 3 2 2 1 4 5 6 4 3 2 4 4 4 3 3 5 4 3 6 9 9 10 9 8 6 6 6 6 5 5 5 5 5 5 5 5 4 3 2 1 1 3 5 5 6 7 9 11 12 12 13
5 5 4 4 4 4 4 3 4 2 4 6 2 2 3 6 6 4 6 5 4 3 5 3 5 4 4 2 3 1 1 3 4 1 4 4 4 5 4 3 4 7 11 11 10 10 9 7 6 7 7 7 6 6 6 7 7 6 6 6 4 3 3 1 2 3 5 6 8 9 11 12 12 13
6 5 5 4 3 4 3 2 4 4 6 6 6 4 2 4 5 5 5 5 4 4 4 3 3 2 2 3 1 4 5 2 3 4 4 3 4 4 2 4 5 7 12 11 10 9 8 8 8 9 8 8 8 9 9 9 8 8 8 7 6 5 4 2 1 2 4 5 7 8 9 10 11 12
5 5 4 4 4 3 4 2 3 4 5 5 5 4 3 2 4 4 4 4 4 5 6 5 3 1 3 1 2 3 5 4 5 2 1 1 2 2 2 1 0 2 3 2 3 5 6 7 8 8 8 8 9 10 11 10 9 9 9 9 8 7 5 2 1 2 4 4 4 5 7 9 10 11
5 5 6 5 4 4 3 4 3 4 4 5 5 4 3 3 4 3 3 3 4 3 3 2 3 5 4 3 3 3 3 4 5 5 1 1 1 1 2 3 4 2 2 1 3 5 3 3 5 8 11 10 12 13 14 11 8 10 10 10 9 7 6 5 3 3 4 4 3 5 7 8 9 10
4 4 4 4 3 3 2 4 4 3 3 3 4 3 3 3 3 2 2 4 2 1 1 1 2 2 3 1 2 1 3 4 1 1 2 1 0 2 1 0 2 2 4 5 5 4 6 8 10 11 10 11 13 13 10 9 5 7 9 9 9 8 7 6 5 5 6 5 4 3 4 6 8 8
5 5 5 5 4 4 6 8 5 4 4 4 3 1 4 3 2 1 2 2 2 3 2 1 2 2 3 3 2 1 1 3 5 2 2 2 0 1 5 4 3 4 4 3 5 6 5 6 6 6 6 7 8 8 9 8 5 6 9 10 10 10 8 7 6 7 8 7 4 2 3 5 7 8
4 5 4 5 10 10 9 9 9 8 7 5 4 5 4 4 3 3 2 1 1 1 1 1 1 2 3 2 1 1 2 2 3 6 5 3 2 1 3 3 1 4 7 7 8 7 4 3 6 6 6 6 5 5 6 6 6 5 8 10 11 10 9 8 7 8 10 9 6 3 4 5 7 8
6 4 4 4 6 7 7 7 9 8 8 8 8 7 7 4 3 4 3 3 3 2 1 2 3 3 2 2 2 4 3 3 3 2 2 3 4 4 2 3 6 2 6 4 4 7 7 3 5 6 6 7 6 6 6 8 10 8 6 7 8 9 9 9 10 10 12 11 7 6 7 7 8 9
5 5 5 4 4 4 6 5 5 5 5 7 8 8 8 8 7 4 3 2 2 3 4 3 3 4 4 1 1 1 2 3 4 4 5 4 4 3 2 0 1 5 3 4 3 6 6 3 4 5 6 6 6 7 10 14 13 10 8 8 9 9 10 11 11 11 13 11 6 6 8 9 9 10
5 6 6 5 5 5 9 6 5 5 4 5 7 8 8 6 7 7 6 4 4 5 5 6 3 3 4 4 2 0 2 2 4 2 4 2 3 2 2 3 3 7 4 4 3 3 6 3 3 4 5 5 4 6 10 13 13 11 10 9 10 10 10 11 11 11 13 12 7 7 8 10 10 10
5 7 7 7 6 4 5 4 5 5 5 5 4 4 3 3 4 6 7 6 5 4 6 7 4 1 4 5 2 1 2 3 3 3 2 1 2 1 1 3 4 5 3 3 2 2 4 3 4 5 6 5 6 6 9 12 14 15 18 17 12 10 10 11 11 12 12 13 11 10 10 11 11 10
1 1 3 5 6 5 5 5 6 7 7 6 5 4 4 4 3 3 3 3 3 4 4 6 7 5 5 6 5 4 5 6 4 4 2 2 1 1 1 2 2 5 2 3 3 3 3 3 6 4 5 4 6 5 6 11 13 15 16 17 17 15 13 11 11 12 13 15 14 13 13 13 12 11
5 6 8 6 6 5 5 6 11 10 8 7 7 6 5 4 3 3 2 4 3 5 6 7 7 6 5 7 6 5 6 4 3 2 2 3 4 4 3 2 3 1 4 3 4 2 3 2 4 4 4 3 6 5 5 9 13 14 15 16 17 18 16 14 13 12 13 13 13 13 13 13 12 9
9 9 10 7 5 4 3 3 5 11 11 6 7 8 7 5 4 4 2 5 7 9 11 10 10 9 9 9 8 8 8 5 4 4 4 1 2 4 3 3 3 4 3 3 5 2 3 3 3 5 3 4 4 4 5 6 9 13 12 12 14 16 15 13 12 12 14 15 15 14 13 12 10 7
4 5 7 8 6 5 4 6 3 10 9 7 7 8 8 6 5 3 2 2 4 6 8 8 8 8 7 8 7 7 7 6 3 2 2 1 3 2 1 3 3 5 5 2 5 5 3 3 4 4 4 3 2 3 4 6 8 11 10 11 11 12 12 11 12 13 14 14 14 15 14 10 7 5
5 5 6 7 6 5 9 13 12 14 10 7 9 9 8 7 6 6 5 5 4 3 4 2 3 1 2 1 2 1 4 4 5 3 2 2 3 1 2 2 3 4 3 2 5 5 4 5 5 4 4 2 4 2 5 4 4 5 6 6 8 12 12 11 11 13 13 12 13 13 13 12 7 5
1 0 2 4 8 6 14 16 16 13 10 9 8 9 8 8 7 6 5 4 5 4 4 3 2 3 2 0 0 1 3 3 1 2 3 3 5 2 1 0 0 1 2 3 4 3 2 2 4 3 1 3 4 3 2 4 2 4 3 4 5 8 9 10 9 11 11 11 13 12 11 10 8 3
5 3 2 2 8 6 1 6 5 7 8 9 8 8 8 7 8 9 5 4 7 4 4 4 2 0 1 2 1 2 3 3 2 1 1 1 2 2 0 1 2 2 3 2 5 3 2 2 3 2 2 0 3 4 3 4 4 3 2 3 5 5 5 6 5 6 8 10 11 11 9 9 9 4
6 7 6 4 7 11 9 6 7 9 10 11 7 6 10 14 16 9 6 6 5 4 3 3 3 2 4 7 7 6 5 3 3 1 0 1 1 2 1 1 1 0 2 4 5 3 3 4 2 3 3 2 4 2 5 4 4 4 3 4 4 5 4 6 5 6 6 6 6 5 7 9 8 8
7 6 6 4 6 12 11 10 10 9 11 10 8 11 13 13 13 8 6 6 6 5 4 4 4 4 6 8 7 5 4 2 1 0 0 1 1 0 1 3 3 2 1 2 2 3 3 3 2 3 4 3 5 3 3 5 5 3 5 4 4 5 5 4 6 7 7 6 6 7 7 8 9 9
9 8 7 8 7 10 12 12 10 7 8 8 9 10 12 11 8 6 6 4 5 4 3 3 5 7 6 6 5 3 4 3 3 4 3 4 6 6 6 5 4 3 3 4 4 3 2 2 3 3 4 4 5 6 7 4 4 5 6 5 5 5 5 4 6 6 6 6 5 5 5 6 6 6
10 12 15 16 16 14 13 12 11 9 9 9 9 9 9 8 6 5 5 5 4 4 4 6 7 6 4 4 2 1 3 6 7 5 6 6 6 5 5 4 4 4 3 3 4 3 3 3 4 4 3 3 5 5 5 6 5 5 4 6 8 5 5 6 4 5 6 6 5 4 5 5 5 4
17 18 18 17 16 15 15 11 8 7 6 7 8 8 7 5 6 6 6 5 6 6 6 6 6 4 2 1 3 5 7 8 6 5 4 5 6 5 6 6 6 4 4 4 4 4 4 4 4 4 4 4 4 5 5 6 7 6 4 5 6 7 3 3 5 5 5 5 5 5 6 5 4 4
12 14 14 13 14 13 14 13 12 11 9 7 6 5 6 7 7 6 6 6 6 6 6 5 4 3 3 4 7 7 7 7 5 4 4 5 3 4 3 4 5 6 6 5 5 5 4 4 4 3 5 5 5 4 5 4 7 7 6 5 5 7 7 6 5 5 5 5 5 6 4 5 6 4
10 10 9 11 9 9 8 8 6 6 6 7 7 6 6 6 6 7 7 7 6 5 5 4 3 4 5 6 5 6 7 5 3 2 4 2 3 2 3 4 4 5 6 6 5 5 6 5 5 6 4 5 6 6 5 5 6 7 7 6 5 6 5 6 6 5 4 5 6 5 5 5 6 6
8 8 8 8 8 8 8 7 7 7 7 6 7 6 5 6 6 6 6 6 6 5 5 5 5 4 4 3 4 6 6 4 2 1 4 1 2 3 2 3 4 4 5 6 5 5 5 6 5 5 5 5 5 6 6 6 6 5 6 7 6 6 5 4 4 5 5 5 6 6 7 6 6 6
12 10 10 9 9 8 7 8 8 7 6 6 5 4 5 4 6 6 6 6 4 4 6 4 4 4 3 2 5 6 5 1 1 1 4 1 1 2 3 4 5 4 4 5 5 5 5 5 5 5 5 4 4 5 6 5 6 6 6 5 5 6 5 5 5 5 4 4 5 7 7 8 7 6
10 11 11 9 7 8 9 9 8 7 6 6 6 6 5 4 5 6 6 5 4 4 4 3 3 4 3 3 5 6 3 2 0 3 2 2 2 3 4 5 4 4 4 5 6 5 4 5 5 6 6 6 6 3 6 7 5 6 5 4 4 5 6 5 6 6 5 5 4 5 7 7 7 6
8 9 9 6 4 6 8 8 7 7 7 6 6 6 6 5 6 7 6 5 6 5 6 4 3 3 5 6 4 4 3 2 2 2 1 1 1 3 3 2 3 4 4 5 6 5 4 5 4 5 6 7 7 7 4 5 3 2 6 7 6 6 6 7 6 6 6 6 5 3 5 7 7 8
11 10 9 9 8 7 7 7 7 6 6 6 5 6 7 7 6 6 6 5 6 6 5 4 2 4 4 4 4 2 3 3 1 1 1 2 4 4 2 3 4 5 5 6 5 5 4 5 5 4 5 6 6 7 8 2 3 3 5 5 6 6 7 7 7 8 6 4 6 4 4 5 7 7
4 4 5 6 7 7 7 7 6 6 6 5 6 6 6 7 7 6 4 6 5 4 3 3 3 4 3 3 4 2 1 1 3 6 7 6 4 2 2 3 5 5 5 6 6 6 5 5 5 5 4 5 7 8 10 7 5 3 5 3 5 7 6 6 6 6 7 4 4 5 3 5 7 7
0 0 4 6 5 7 7 6 6 6 7 6 6 6 6 6 6 5 6 6 6 5 4 4 3 3 4 3 3 2 3 6 7 6 5 3 1 2 4 4 5 5 5 6 6 6 5 4 5 5 4 5 6 7 7 8 8 9 9 8 4 6 6 5 6 6 5 5 4 4 4 5 7 11
4 2 2 2 6 7 7 7 6 7 8 7 6 7 7 7 6 6 6 6 6 4 4 3 3 2 4 3 6 8 8 7 6 4 3 1 1 2 4 5 5 5 5 6 6 5 4 5 5 5 6 6 7 6 5 6 6 7 8 9 5 6 5 3 3 4 4 3 4 5 7 6 6 4
6 3 1 1 2 6 8 8 8 6 7 7 7 7 8 7 7 6 6 6 5 5 3 3 5 6 6 6 6 7 7 5 4 2 1 1 3 4 6 5 5 5 4 6 5 5 6 5 7 9 7 5 5 3 4 4 5 6 6 5 2 2 4 3 2 0 1 2 3 4 5 6 6 5
8 4 4 7 7 6 8 8 7 6 6 5 6 7 7 7 7 8 7 6 6 5 7 7 6 6 5 6 6 7 6 4 2 0 1 3 4 5 6 5 5 5 4 5 6 6 7 7 6 5 4 4 4 3 4 6 6 7 7 6 3 3 5 7 8 6 4 2 3 3 3 4 2 3
7 7 4 2 4 7 8 8 7 7 6 6 6 7 7 7 7 7 6 6 5 7 7 6 5 6 4 5 5 6 5 3 3 1 2 4 3 5 5 5 5 5 5 5 6 6 6 6 5 5 5 4 3 2 5 6 6 6 6 7 5 0 2 3 5 7 7 6 4 1 2 2 2 3
5 8 8 6 5 5 5 6 8 7 6 6 6 6 7 7 6 5 6 7 7 7 6 6 5 5 4 4 3 3 3 2 1 1 1 3 5 5 4 5 5 5 5 5 5 6 6 6 5 4 5 5 4 3 5 5 6 5 5 6 4 3 3 2 1 1 0 4 7 6 5 3 6 7
5 5 5 5 4 4 4 5 8 7 6 6 6 6 6 6 6 5 5 6 7 6 5 6 5 4 4 3 3 4 2 4 2 1 2 4 4 4 5 4 5 5 5 5 5 6 6 6 6 4 3 5 4 4 5 5 5 6 5 4 6 2 3 2 1 0 1 3 5 7 5 4 4 5
Wind_Direction
95 86 86 93 80 54 61 64 78 99 112 124 125 146 154 149 135 141 111 111 135 83 136 135 216 143 151 159 162 149 163 178 176 153 150 164 170 161 147 148 142 125 126 136 130 123 110 97 84 66 53 46 44 47 47 50 47 44 42 34 27 28 29 20 10 7 3 3 3 7 7 3 2 1
90 90 80 83 76 64 60 60 76 90 99 87 89 87 131 145 145 153 129 116 234 154 22 118 136 169 152 160 170 166 178 192 189 170 165 174 188 180 170 163 157 153 156 166 158 142 131 119 105 91 58 52 45 35 37 37 42 42 42 35 31 33 33 25 15 12 7 5 3 2 0 356 353 351
96 94 92 85 75 56 68 66 68 72 82 90 83 77 88 129 129 132 127 112 276 150 130 69 131 148 166 158 171 182 184 193 191 178 170 181 192 184 185 171 163 166 175 173 185 154 136 128 126 115 100 53 29 30 25 35 39 42 39 35 35 32 33 31 24 16 10 8 4 0 356 352 350 347
99 101 98 90 103 91 79 69 75 80 91 102 95 92 86 89 107 106 99 112 122 223 161 162 152 142 124 156 154 197 188 181 187 180 170 176 178 178 182 200 189 188 194 205 209 209 168 160 162 162 150 140 284 58 110 62 67 58 45 36 37 36 36 34 27 20 14 10 4 359 355 351 347 344
107 98 89 71 56 77 69 45 61 93 96 90 100 113 109 102 113 117 120 123 139 8 145 130 164 155 133 178 181 180 208 212 202 194 146 168 181 178 181 205 220 214 206 210 224 229 211 192 189 190 174 180 207 225 200 174 112 96 68 39 44 42 38 33 28 23 17 10 5 359 354 349 345 342
93 99 81 65 65 78 78 51 47 44 64 74 67 64 107 116 127 129 101 132 127 167 310 87 281 72 83 147 201 183 198 233 197 192 162 186 186 164 189 201 218 229 223 228 232 236 225 217 210 219 206 195 200 212 212 203 184 154 134 107 63 56 39 20 24 23 14 7 3 356 353 349 345 342
110 82 82 74 70 70 59 46 67 61 67 92 106 106 101 111 129 134 135 126 123 160 205 195 151 205 156 154 207 222 198 202 207 169 186 180 176 186 189 204 214 218 224 233 242 247 246 242 237 242 243 229 226 221 223 225 204 184 169 168 159 157 173 338 358 8 358 0 0 355 349 345 341 340
116 118 95 86 90 80 71 48 52 78 98 78 52 120 148 121 109 109 134 137 133 170 155 217 170 206 165 229 226 247 309 181 248 342 82 107 151 181 191 197 215 214 213 226 240 251 263 275 277 269 270 269 265 256 241 227 213 198 186 181 179 201 233 240 356 347 355 357 357 352 347 342 337 336
131 129 139 154 108 95 93 46 46 59 72 72 67 46 59 116 121 104 109 118 119 136 163 200 231 206 200 232 179 159 199 247 36 28 98 100 108 120 179 184 201 206 205 217 239 255 263 281 289 284 281 283 280 278 271 252 227 209 199 190 189 205 221 229 10 341 339 350 355 351 347 340 335 337
144 145 155 159 145 121 137 150 99 86 86 80 71 51 43 69 76 97 105 109 121 149 171 158 179 224 182 236 257 202 168 128 112 75 30 42 89 98 43 336 211 154 145 202 239 261 269 271 283 286 282 280 280 286 289 278 247 217 209 201 196 199 215 222 215 308 299 316 341 347 347 342 342 343
157 158 162 171 162 162 156 144 148 123 105 107 104 102 74 70 92 68 90 131 123 116 117 155 172 190 229 179 209 245 131 133 147 147 93 48 319 15 77 30 351 30 56 36 30 37 42 316 312 320 328 324 319 316 316 312 260 225 220 212 208 209 215 217 226 255 276 290 321 336 345 344 343 345
155 118 120 119 129 141 156 157 153 120 128 126 117 140 104 87 79 93 84 71 75 63 87 155 200 227 196 286 260 28 93 68 29 151 128 149 300 1 310 106 31 360 58 30 358 18 14 353 341 337 323 315 312 315 319 318 289 232 225 220 218 216 215 223 225 236 250 257 281 330 346 336 334 334
124 132 138 140 140 138 122 107 103 118 145 138 119 109 123 120 114 107 74 100 88 96 107 351 4 32 2 327 293 203 104 155 181 239 97 101 2 8 27 329 40 67 58 5 6 356 359 337 323 315 313 304 310 308 320 327 319 232 221 223 226 224 221 218 222 234 239 240 239 298 311 305 305 308
149 153 157 163 147 135 132 127 120 107 89 92 127 160 134 134 122 138 133 119 120 110 73 28 35 25 24 338 100 88 359 20 44 50 41 58 317 40 13 313 353 31 39 7 346 328 325 327 305 308 302 295 299 296 316 302 290 260 225 224 228 228 226 227 230 237 241 235 212 219 244 266 280 288
168 165 168 161 148 139 139 144 141 136 141 130 117 92 89 96 146 143 143 186 179 151 125 145 108 115 116 15 34 102 82 42 88 113 105 76 41 57 48 338 313 349 37 348 334 313 309 335 303 301 300 298 302 308 293 295 305 293 265 247 243 237 232 231 235 240 245 241 214 210 226 236 250 265
173 176 176 176 171 174 178 166 154 157 146 133 124 123 123 115 85 107 146 149 120 143 136 105 135 129 141 132 55 64 58 71 51 45 67 71 85 62 64 265 272 267 350 341 315 293 288 300 286 304 303 318 327 331 352 10 11 347 313 276 259 247 239 240 243 248 255 258 233 226 230 233 238 250
183 181 177 180 193 185 183 169 164 150 121 107 119 118 107 101 123 117 97 95 139 141 117 135 158 158 152 112 72 227 149 122 96 62 63 57 67 84 26 293 289 307 325 350 298 285 287 312 322 329 313 341 352 3 6 358 354 351 329 299 283 271 261 257 258 263 275 290 286 256 251 249 244 245
185 185 179 182 194 201 185 183 161 145 142 141 127 122 109 105 79 75 80 80 91 130 145 143 140 236 138 132 141 73 113 101 110 96 78 69 67 16 288 253 262 277 336 315 299 318 309 344 21 1 332 352 357 352 344 351 356 3 3 1 353 324 297 287 283 284 292 305 316 293 274 267 262 258
330 286 203 192 197 197 189 190 173 157 158 145 137 127 120 107 91 89 77 83 112 114 115 122 125 120 108 119 126 116 102 117 149 159 170 184 181 200 285 344 334 314 345 42 54 315 294 342 19 333 324 340 344 335 340 357 10 10 9 6 2 357 350 334 316 313 316 319 316 302 285 277 275 274
271 255 254 229 210 199 186 201 184 167 153 149 142 133 114 100 96 69 2 350 68 112 123 121 125 135 135 136 137 140 135 135 143 110 58 63 54 53 33 336 300 323 300 57 56 340 307 312 18 315 311 345 343 334 352 357 9 17 16 12 11 6 357 347 339 332 325 324 326 319 303 287 284 306
210 208 211 210 200 203 177 177 177 160 153 149 144 139 136 135 116 95 56 50 69 96 106 117 122 127 130 130 134 140 150 143 141 78 55 33 75 59 21 319 359 309 315 352 16 352 324 327 342 327 316 341 314 334 348 357 12 20 15 14 10 3 357 353 352 350 346 346 347 342 328 308 304 315
222 236 216 202 201 196 146 124 230 201 166 150 149 143 136 134 122 140 141 93 67 76 93 102 120 128 132 142 145 146 128 125 114 109 106 202 98 59 67 320 310 303 325 0 359 16 292 322 340 337 298 339 303 348 8 8 5 2 359 359 360 355 351 352 352 347 344 348 350 348 344 333 318 320
222 234 261 271 263 203 147 159 208 212 186 163 160 156 141 146 164 186 170 145 126 116 90 81 98 92 101 126 163 154 108 99 69 86 134 126 86 69 4 354 343 354 309 335 17 24 310 14 320 7 351 347 289 21 16 6 351 352 348 346 345 342 345 344 343 340 340 345 344 341 341 344 355 339
168 10 6 12 347 220 177 178 192 203 192 174 163 149 150 158 179 170 165 169 140 148 145 181 187 197 203 92 318 65 85 66 73 100 105 116 117 103 141 162 152 224 250 326 12 50 274 44 325 5 77 333 311 307 341 331 319 331 328 339 337 327 332 337 334 333 333 331 331 333 339 342 348 349
157 142 91 94 51 56 89 144 165 163 184 152 157 151 160 172 156 146 143 163 154 147 168 170 160 112 109 197 222 71 118 137 164 149 151 164 158 147 162 8 0 295 270 284 343 56 321 325 308 342 329 268 263 316 292 311 300 299 299 319 317 312 324 318 323 320 318 321 323 326 331 337 341 354
152 146 142 130 122 122 106 75 89 101 104 108 102 124 131 131 133 141 146 144 142 137 109 85 57 57 40 25 45 61 64 81 86 88 260 254 218 179 174 142 133 93 293 299 6 37 5 338 314 330 291 312 289 279 310 302 282 282 302 300 291 293 306 311 320 317 317 314 311 309 309 319 323 323
150 131 130 127 143 126 114 108 102 100 101 95 112 125 117 122 126 122 116 113 108 105 119 118 102 69 69 81 81 91 104 87 62 8 347 330 325 29 89 101 121 104 256 293 351 31 36 310 307 323 300 286 295 297 291 312 308 305 314 291 293 295 301 318 319 315 311 308 304 314 325 325 318 314
149 144 142 138 134 107 115 119 116 110 104 116 118 101 102 99 98 100 110 121 125 121 103 77 64 67 86 102 110 146 180 186 186 165 148 80 55 52 39 32 29 27 359 353 345 3 19 304 295 276 272 287 305 315 312 276 272 293 305 302 293 290 296 310 307 305 302 304 314 327 342 331 317 320
158 156 152 146 129 120 108 102 92 84 81 80 79 84 83 87 76 85 98 112 100 84 79 86 90 98 118 133 145 141 86 57 44 44 31 38 39 35 48 33 25 4 353 340 339 321 323 302 289 291 303 298 307 291 291 295 303 297 300 316 315 310 310 300 293 296 302 309 308 319 316 305 311 315
153 151 149 137 130 128 129 123 128 121 122 113 112 95 90 81 89 95 99 86 88 99 102 97 101 131 152 102 94 80 71 67 61 64 48 37 19 24 25 16 352 338 330 318 325 331 330 324 308 311 313 299 287 290 290 301 301 292 295 289 284 299 266 290 308 302 304 307 308 310 297 296 296 317
147 149 148 146 147 150 151 144 145 141 149 133 109 99 94 100 101 105 104 114 111 112 106 106 115 122 90 72 53 57 73 74 69 80 81 63 9 21 14 30 340 339 325 332 331 326 324 318 316 315 313 302 295 277 283 280 293 301 296 282 292 295 306 310 301 302 301 303 305 300 301 311 314 310
147 141 138 130 126 129 124 130 126 129 130 121 113 98 102 104 101 96 90 75 87 98 118 128 103 54 53 62 78 77 78 88 70 62 78 88 7 351 20 24 340 334 332 329 326 324 328 319 320 318 305 295 302 306 304 299 293 296 296 295 286 283 286 292 300 304 307 309 311 314 307 307 311 309
126 124 130 135 137 143 141 132 124 122 111 102 102 107 107 110 106 105 98 111 119 131 103 98 101 92 80 59 51 84 77 67 84 41 57 46 65 335 45 28 332 336 331 326 320 313 312 311 311 310 312 312 302 297 303 304 293 290 295 297 299 294 294 290 296 304 317 321 315 317 314 308 296 298
149 157 155 159 155 152 139 133 132 135 137 145 138 121 131 126 128 109 114 125 136 114 113 119 99 120 116 70 82 96 106 66 8 31 98 11 68 64 33 17 348 330 316 301 306 302 307 313 321 316 311 297 281 271 272 273 286 292 288 295 300 304 304 309 304 301 309 310 320 317 315 310 303 297
157 160 160 164 160 157 147 143 146 146 147 148 130 132 141 147 129 121 127 143 129 116 107 97 123 152 130 123 126 119 140 137 340 18 31 90 63 76 45 353 318 306 295 301 297 295 303 309 324 321 317 319 323 295 244 247 273 287 312 314 311 305 305 303 305 307 315 312 336 312 303 300 303 298
169 162 155 154 178 155 139 144 145 149 151 147 145 133 127 140 130 133 142 165 133 127 111 119 113 97 105 126 136 144 164 129 83 108 45 81 79 40 22 338 292 283 287 286 286 293 305 308 321 326 323 322 324 317 328 274 288 22 334 316 313 308 303 305 303 303 307 302 297 290 292 300 300 304
169 166 158 157 168 160 149 143 143 148 146 149 147 143 151 150 153 150 162 153 120 125 145 142 117 119 139 141 135 123 118 115 138 149 84 20 39 51 27 324 301 287 288 283 284 291 301 307 309 312 312 309 316 313 302 304 325 286 292 285 303 305 305 306 310 306 288 270 286 263 267 284 292 294
4 47 101 146 154 147 135 134 135 133 146 158 160 157 147 148 150 143 125 103 112 115 114 102 114 137 144 122 91 85 121 112 87 66 53 59 57 11 3 341 296 284 284 290 294 294 297 295 297 293 299 305 309 309 311 315 323 255 208 277 286 295 299 300 296 290 298 285 250 279 291 290 283 287
6 249 158 158 157 141 132 139 140 159 163 166 158 143 144 137 117 108 110 116 120 124 118 105 124 155 109 114 133 119 60 63 71 70 66 55 81 33 344 287 285 288 289 294 294 296 301 296 290 287 280 292 294 294 297 305 304 304 303 293 266 273 274 255 269 285 287 302 312 294 265 256 273 279
149 134 312 260 164 149 143 149 150 147 146 148 139 139 136 131 128 128 122 127 126 129 124 128 158 116 73 82 80 75 79 89 99 108 113 159 319 314 273 271 271 282 290 288 296 298 301 291 290 283 277 261 265 269 280 278 278 282 281 293 263 209 246 241 255 283 301 336 327 326 318 325 328 322
122 125 145 237 149 124 125 127 128 127 127 123 118 121 122 129 130 137 140 135 123 108 92 81 93 87 91 85 91 98 98 101 113 146 167 351 299 270 270 272 282 278 283 290 293 303 301 291 284 282 275 272 276 313 296 287 298 302 307 305 17 321 288 267 247 178 31 330 330 315 311 316 317 324
143 139 150 151 139 126 118 117 121 116 112 113 118 124 128 130 139 143 132 118 103 103 86 90 96 98 97 97 101 99 106 125 136 178 289 277 271 279 277 275 274 284 284 293 299 293 287 289 292 297 295 299 308 309 294 295 296 300 298 307 332 20 51 79 83 89 95 44 356 334 326 313 318 319
121 118 102 111 132 122 108 112 113 114 118 121 127 132 131 134 132 130 124 114 101 93 101 99 97 96 98 102 110 120 128 151 170 194 255 264 266 266 278 280 273 278 276 280 282 281 290 295 302 306 302 296 264 233 275 282 282 283 293 302 306 305 36 62 99 103 89 69 45 337 278 280 325 329
107 107 120 122 106 108 115 111 115 125 130 132 135 135 140 140 137 134 120 123 114 113 110 108 96 85 72 68 77 111 137 165 179 177 257 275 271 271 275 283 287 288 286 287 295 296 295 298 296 292 300 293 278 278 277 285 285 275 274 277 281 260 205 207 292 299 315 57 35 23 357 279 242 261
55 64 111 135 137 118 117 122 127 131 130 121 102 98 92 85 93 99 98 98 102 110 105 102 91 80 63 44 59 85 139 174 174 221 266 271 288 293 282 274 283 293 297 293 295 300 303 304 302 300 266 275 265 257 267 262 273 289 285 282 291 265 152 181 166 35 11 354 12 13 359 10 21 23